START_TIME,STEP,MOV.,A46,t_acc.,A13,t_acc.,M47,t_acc.,A17,t_acc.,A28,t_acc.,M38,t_acc.
1979-03-04 18:00:15.010 ,3,0,,0,21504.,4.8,6784.,4.8,,0,0.,4.8,5120.,4.8
1979-03-04 18:00:19.810 ,3,0,,0,25600.,4.8,8192.,4.8,,0,0.,4.8,5888.,4.8
1979-03-04 18:00:24.610 ,3,0,,0,20480.,4.8,6528.,4.8,,0,0.,4.8,5504.,4.8
1979-03-04 18:00:29.410 ,3,0,,0,0.,4.8,0.,4.8,,0,0.,4.8,4480.,4.8
1979-03-04 18:00:34.210 ,3,0,,0,1.,4.8,0.,4.8,,0,0.,4.8,3712.,4.8
1979-03-04 18:00:39.010 ,0,0,,0,0.,4.8,0.,4.8,,0,0.,4.8,3392.,4.8
1979-03-04 18:00:43.810 ,0,0,,0,0.,4.8,0.,4.8,,0,0.,4.8,3328.,4.8
1979-03-04 18:00:48.610 ,0,0,,0,3136.,4.8,1008.,4.8,,0,0.,4.8,3648.,4.8
1979-03-04 18:00:53.410 ,0,0,,0,18432.,4.8,5760.,4.8,,0,0.,4.8,4096.,4.8
1979-03-04 18:00:58.210 ,0,0,,0,18432.,4.8,5760.,4.8,,0,0.,4.8,4032.,4.8
1979-03-04 18:01:03.010 ,4,0,,0,16384.,4.8,4992.,4.8,,0,0.,4.8,3584.,4.8
1979-03-04 18:01:07.810 ,4,0,,0,15616.,4.8,4608.,4.8,,0,0.,4.8,3392.,4.8
1979-03-04 18:01:12.610 ,4,0,,0,12800.,4.8,4032.,4.8,,0,0.,4.8,3456.,4.8
1979-03-04 18:01:17.410 ,4,0,,0,1.,4.8,0.,4.8,,0,0.,4.8,3776.,4.8
1979-03-04 18:01:22.210 ,4,0,,0,1.,4.8,0.,4.8,,0,0.,4.8,4608.,4.8
1979-03-04 18:01:27.010 ,7,0,,0,0.,4.8,0.,4.8,,0,0.,4.8,5632.,4.8
1979-03-04 18:01:31.810 ,7,0,,0,1.,4.8,0.,4.8,,0,0.,4.8,6016.,4.8
1979-03-04 18:01:36.610 ,7,0,,0,1.,4.8,0.,4.8,,0,0.,4.8,4224.,4.8
1979-03-04 18:01:41.410 ,7,0,,0,8.,4.8,0.,4.8,,0,0.,4.8,0.,4.8
1979-03-04 18:01:46.210 ,7,0,,0,13.,4.8,0.,4.8,,0,0.,4.8,0.,4.8
1979-03-04 18:01:51.010 ,3,0,,0,21504.,4.8,6912.,4.8,,0,0.,4.8,5120.,4.8
1979-03-04 18:01:55.810 ,3,0,,0,25600.,4.8,8192.,4.8,,0,0.,4.8,6016.,4.8
1979-03-04 18:02:00.610 ,3,0,,0,20992.,4.8,6656.,4.8,,0,0.,4.8,5504.,4.8
1979-03-04 18:02:05.410 ,3,0,,0,0.,4.8,0.,4.8,,0,0.,4.8,4736.,4.8
1979-03-04 18:02:10.210 ,3,0,,0,0.,4.8,0.,4.8,,0,0.,4.8,3712.,4.8
1979-03-04 18:02:15.010 ,0,0,,0,1.,4.8,0.,4.8,,0,0.,4.8,3392.,4.8
1979-03-04 18:02:19.810 ,0,0,,0,1.,4.8,0.,4.8,,0,0.,4.8,3456.,4.8
1979-03-04 18:02:24.610 ,0,0,,0,3072.,4.8,960.,4.8,,0,0.,4.8,3776.,4.8
1979-03-04 18:02:29.410 ,0,0,,0,18432.,4.8,5760.,4.8,,0,0.,4.8,4096.,4.8
1979-03-04 18:02:34.210 ,0,0,,0,18432.,4.8,5760.,4.8,,0,0.,4.8,4096.,4.8
1979-03-04 18:02:39.010 ,4,0,,0,16384.,4.8,5120.,4.8,,0,0.,4.8,3776.,4.8
1979-03-04 18:02:43.810 ,4,0,,0,16128.,4.8,4736.,4.8,,0,0.,4.8,3392.,4.8
1979-03-04 18:02:48.610 ,4,0,,0,13056.,4.8,4096.,4.8,,0,0.,4.8,3456.,4.8
1979-03-04 18:02:53.410 ,4,0,,0,2.,4.8,0.,4.8,,0,0.,4.8,3840.,4.8
1979-03-04 18:02:58.210 ,4,0,,0,2.,4.8,0.,4.8,,0,0.,4.8,4736.,4.8
1979-03-04 18:03:03.010 ,7,0,,0,0.,4.8,0.,4.8,,0,0.,4.8,5760.,4.8
1979-03-04 18:03:07.810 ,7,0,,0,1.,4.8,0.,4.8,,0,0.,4.8,6272.,4.8
1979-03-04 18:03:12.610 ,7,0,,0,3.,4.8,0.,4.8,,0,0.,4.8,4352.,4.8
1979-03-04 18:03:17.410 ,7,0,,0,15.,4.8,0.,4.8,,0,0.,4.8,0.,4.8
1979-03-04 18:03:22.210 ,7,0,,0,15.,4.8,0.,4.8,,0,0.,4.8,0.,4.8
1979-03-04 18:03:27.010 ,3,0,,0,22016.,4.8,7040.,4.8,,0,0.,4.8,5248.,4.8
1979-03-04 18:03:31.810 ,3,0,,0,26112.,4.8,8192.,4.8,,0,0.,4.8,6272.,4.8
1979-03-04 18:03:36.610 ,3,0,,0,20992.,4.8,6656.,4.8,,0,0.,4.8,5504.,4.8
1979-03-04 18:03:41.410 ,3,0,,0,1.,4.8,0.,4.8,,0,0.,4.8,4736.,4.8
1979-03-04 18:03:46.210 ,3,0,,0,0.,4.8,0.,4.8,,0,0.,4.8,3968.,4.8
1979-03-04 18:03:51.010 ,0,0,,0,0.,4.8,0.,4.8,,0,0.,4.8,3456.,4.8
1979-03-04 18:03:55.810 ,0,0,,0,1.,4.8,0.,4.8,,0,0.,4.8,3520.,4.8
1979-03-04 18:04:00.610 ,0,0,,0,3136.,4.8,992.,4.8,,0,0.,4.8,3712.,4.8
1979-03-04 18:04:05.410 ,0,0,,0,18944.,4.8,5888.,4.8,,0,0.,4.8,4480.,4.8
1979-03-04 18:04:10.210 ,0,0,,0,18944.,4.8,6016.,4.8,,0,0.,4.8,4224.,4.8
1979-03-04 18:04:15.010 ,4,0,,0,16896.,4.8,5248.,4.8,,0,0.,4.8,3712.,4.8
1979-03-04 18:04:19.810 ,4,0,,0,16128.,4.8,4864.,4.8,,0,0.,4.8,3520.,4.8
1979-03-04 18:04:24.610 ,4,0,,0,13312.,4.8,3968.,4.8,,0,0.,4.8,3520.,4.8
1979-03-04 18:04:29.410 ,4,0,,0,0.,4.8,0.,4.8,,0,0.,4.8,3904.,4.8
1979-03-04 18:04:34.210 ,4,0,,0,0.,4.8,0.,4.8,,0,0.,4.8,4992.,4.8
1979-03-04 18:04:39.010 ,7,0,,0,0.,4.8,0.,4.8,,0,0.,4.8,6016.,4.8
1979-03-04 18:04:43.810 ,7,0,,0,1.,4.8,0.,4.8,,0,0.,4.8,6272.,4.8
1979-03-04 18:04:48.610 ,7,0,,0,0.,4.8,0.,4.8,,0,0.,4.8,4480.,4.8
1979-03-04 18:04:53.410 ,7,0,,0,12.,4.8,0.,4.8,,0,0.,4.8,0.,4.8
1979-03-04 18:04:58.210 ,7,0,,0,12.,4.8,0.,4.8,,0,0.,4.8,0.,4.8
1979-03-04 18:05:03.010 ,3,0,,0,23040.,4.8,7296.,4.8,,0,0.,4.8,5376.,4.8
1979-03-04 18:05:07.810 ,3,0,,0,26624.,4.8,8448.,4.8,,0,0.,4.8,6528.,4.8
1979-03-04 18:05:12.610 ,3,0,,0,21504.,4.8,6784.,4.8,,0,0.,4.8,5632.,4.8
1979-03-04 18:05:17.410 ,3,0,,0,0.,4.8,0.,4.8,,0,0.,4.8,4864.,4.8
1979-03-04 18:05:22.210 ,3,0,,0,1.,4.8,0.,4.8,,0,0.,4.8,3904.,4.8
1979-03-04 18:06:15.010 ,0,0,,0,0.,4.8,0.,4.8,,0,0.,4.8,6144.,4.8
1979-03-04 18:06:19.810 ,0,0,,0,0.,4.8,0.,4.8,,0,0.,4.8,6528.,4.8
1979-03-04 18:06:24.610 ,0,0,,0,0.,4.8,0.,4.8,,0,0.,4.8,4608.,4.8
1979-03-04 18:06:29.410 ,0,0,,0,9.,4.8,0.,4.8,,0,0.,4.8,0.,4.8
1979-03-04 18:06:34.210 ,0,0,,0,8.,4.8,0.,4.8,,0,0.,4.8,0.,4.8
1979-03-04 18:06:39.010 ,3,0,,0,23552.,4.8,7680.,4.8,,0,0.,4.8,5632.,4.8
1979-03-04 18:06:43.810 ,3,0,,0,28160.,4.8,8960.,4.8,,0,0.,4.8,6656.,4.8
1979-03-04 18:06:48.610 ,3,0,,0,22016.,4.8,7168.,4.8,,0,0.,4.8,6016.,4.8
1979-03-04 18:06:53.410 ,3,0,,0,0.,4.8,0.,4.8,,0,0.,4.8,4992.,4.8
1979-03-04 18:06:58.210 ,3,0,,0,0.,4.8,0.,4.8,,0,0.,4.8,4032.,4.8
1979-03-04 18:07:03.010 ,0,0,,0,0.,4.8,0.,4.8,,0,0.,4.8,3648.,4.8
1979-03-04 18:07:07.810 ,0,0,,0,0.,4.8,0.,4.8,,0,0.,4.8,3520.,4.8
1979-03-04 18:07:12.610 ,0,0,,0,3328.,4.8,1056.,4.8,,0,0.,4.8,3968.,4.8
1979-03-04 18:07:17.410 ,0,0,,0,19456.,4.8,6272.,4.8,,0,0.,4.8,4608.,4.8
1979-03-04 18:07:22.210 ,0,0,,0,19456.,4.8,6144.,4.8,,0,0.,4.8,4608.,4.8
1979-03-04 18:07:27.010 ,4,0,,0,17408.,4.8,5504.,4.8,,0,0.,4.8,3968.,4.8
1979-03-04 18:07:31.810 ,4,0,,0,16384.,4.8,5120.,4.8,,0,0.,4.8,3648.,4.8
1979-03-04 18:07:36.610 ,4,0,,0,13824.,4.8,4352.,4.8,,0,0.,4.8,3712.,4.8
1979-03-04 18:07:41.410 ,4,0,,0,1.,4.8,0.,4.8,,0,0.,4.8,4096.,4.8
1979-03-04 18:07:46.210 ,4,0,,0,0.,4.8,0.,4.8,,0,0.,4.8,5248.,4.8
1979-03-04 18:07:51.010 ,7,0,,0,0.,4.8,0.,4.8,,0,0.,4.8,6272.,4.8
1979-03-04 18:07:55.810 ,7,0,,0,0.,4.8,0.,4.8,,0,0.,4.8,6784.,4.8
1979-03-04 18:08:00.610 ,7,0,,0,2.,4.8,0.,4.8,,0,0.,4.8,4736.,4.8
1979-03-04 18:08:05.410 ,7,0,,0,8.,4.8,0.,4.8,,0,0.,4.8,0.,4.8
1979-03-04 18:08:10.210 ,7,0,,0,12.,4.8,0.,4.8,,0,0.,4.8,0.,4.8
1979-03-04 18:08:15.010 ,3,0,,0,24064.,4.8,7680.,4.8,,0,0.,4.8,5632.,4.8
1979-03-04 18:08:19.810 ,3,0,,0,28672.,4.8,8960.,4.8,,0,0.,4.8,6784.,4.8
1979-03-04 18:08:24.610 ,3,0,,0,22528.,4.8,7296.,4.8,,0,0.,4.8,6016.,4.8
1979-03-04 18:08:29.410 ,3,0,,0,0.,4.8,0.,4.8,,0,0.,4.8,4992.,4.8
1979-03-04 18:08:34.210 ,3,0,,0,0.,4.8,0.,4.8,,0,0.,4.8,4096.,4.8
1979-03-04 18:08:39.010 ,0,0,,0,2.,4.8,0.,4.8,,0,0.,4.8,3776.,4.8
1979-03-04 18:08:43.810 ,0,0,,0,0.,4.8,0.,4.8,,0,0.,4.8,3776.,4.8
1979-03-04 18:08:48.610 ,0,0,,0,3392.,4.8,1056.,4.8,,0,0.,4.8,4096.,4.8
1979-03-04 18:08:53.410 ,0,0,,0,19968.,4.8,6400.,4.8,,0,0.,4.8,4608.,4.8
1979-03-04 18:08:58.210 ,0,0,,0,19968.,4.8,6400.,4.8,,0,0.,4.8,4608.,4.8
1979-03-04 18:09:03.010 ,4,0,,0,17920.,4.8,5632.,4.8,,0,0.,4.8,3904.,4.8
1979-03-04 18:09:07.810 ,4,0,,0,16896.,4.8,5248.,4.8,,0,0.,4.8,3776.,4.8
1979-03-04 18:09:12.610 ,4,0,,0,13824.,4.8,4224.,4.8,,0,0.,4.8,3840.,4.8
1979-03-04 18:09:17.410 ,4,0,,0,0.,4.8,0.,4.8,,0,0.,4.8,4224.,4.8
1979-03-04 18:09:22.210 ,4,0,,0,1.,4.8,0.,4.8,,0,0.,4.8,5248.,4.8
1979-03-04 18:09:27.010 ,7,0,,0,0.,4.8,0.,4.8,,0,0.,4.8,6400.,4.8
1979-03-04 18:09:31.810 ,7,0,,0,2.,4.8,0.,4.8,,0,0.,4.8,6784.,4.8
1979-03-04 18:09:36.610 ,7,0,,0,1.,4.8,0.,4.8,,0,0.,4.8,4736.,4.8
1979-03-04 18:09:41.410 ,7,0,,0,7.,4.8,0.,4.8,,0,0.,4.8,0.,4.8
1979-03-04 18:09:46.210 ,7,0,,0,10.,4.8,0.,4.8,,0,0.,4.8,0.,4.8
1979-03-04 18:09:51.010 ,3,0,,0,24064.,4.8,7808.,4.8,,0,0.,4.8,6016.,4.8
1979-03-04 18:09:55.810 ,3,0,,0,29184.,4.8,9216.,4.8,,0,0.,4.8,6912.,4.8
1979-03-04 18:10:00.610 ,3,0,,0,22528.,4.8,7296.,4.8,,0,0.,4.8,6272.,4.8
1979-03-04 18:10:05.410 ,3,0,,0,0.,4.8,0.,4.8,,0,0.,4.8,5248.,4.8
1979-03-04 18:10:10.210 ,3,0,,0,0.,4.8,0.,4.8,,0,0.,4.8,4224.,4.8
1979-03-04 18:10:15.010 ,0,0,,0,1.,4.8,0.,4.8,,0,0.,4.8,3776.,4.8
1979-03-04 18:10:19.810 ,0,0,,0,0.,4.8,0.,4.8,,0,0.,4.8,3904.,4.8
1979-03-04 18:10:24.610 ,0,0,,0,3392.,4.8,1056.,4.8,,0,0.,4.8,4224.,4.8
1979-03-04 18:10:29.410 ,0,0,,0,20480.,4.8,6656.,4.8,,0,0.,4.8,4864.,4.8
1979-03-04 18:10:34.210 ,0,0,,0,20480.,4.8,6528.,4.8,,0,0.,4.8,4736.,4.8
1979-03-04 18:10:39.010 ,4,0,,0,17920.,4.8,5632.,4.8,,0,0.,4.8,4096.,4.8
1979-03-04 18:10:43.810 ,4,0,,0,16896.,4.8,5248.,4.8,,0,0.,4.8,3840.,4.8
1979-03-04 18:10:48.610 ,4,0,,0,14080.,4.8,4352.,4.8,,0,0.,4.8,3904.,4.8
1979-03-04 18:10:53.410 ,4,0,,0,0.,4.8,0.,4.8,,0,0.,4.8,4224.,4.8
1979-03-04 18:10:58.210 ,4,0,,0,1.,4.8,0.,4.8,,0,0.,4.8,5248.,4.8
1979-03-04 18:11:03.010 ,7,0,,0,0.,4.8,0.,4.8,,0,0.,4.8,6400.,4.8
1979-03-04 18:11:07.810 ,7,0,,0,0.,4.8,0.,4.8,,0,0.,4.8,7296.,4.8
1979-03-04 18:11:12.610 ,7,0,,0,0.,4.8,0.,4.8,,0,0.,4.8,4864.,4.8
1979-03-04 18:11:17.410 ,7,0,,0,5.,4.8,0.,4.8,,0,0.,4.8,0.,4.8
1979-03-04 18:11:22.210 ,7,0,,0,10.,4.8,0.,4.8,,0,0.,4.8,0.,4.8
1979-03-04 18:11:27.010 ,3,0,,0,24576.,4.8,8064.,4.8,,0,0.,4.8,6144.,4.8
1979-03-04 18:11:31.810 ,3,0,,0,29696.,4.8,9472.,4.8,,0,0.,4.8,7040.,4.8
1979-03-04 18:11:36.610 ,3,0,,0,23040.,4.8,7296.,4.8,,0,0.,4.8,6272.,4.8
1979-03-04 18:11:41.410 ,3,0,,0,1.,4.8,0.,4.8,,0,0.,4.8,5248.,4.8
1979-03-04 18:11:46.210 ,3,0,,0,2.,4.8,0.,4.8,,0,0.,4.8,4224.,4.8
1979-03-04 18:11:51.010 ,0,0,,0,0.,4.8,0.,4.8,,0,0.,4.8,3904.,4.8
1979-03-04 18:11:55.810 ,0,0,,0,2.,4.8,0.,4.8,,0,0.,4.8,3840.,4.8
1979-03-04 18:12:00.610 ,0,0,,0,3392.,4.8,1120.,4.8,,0,0.,4.8,4352.,4.8
1979-03-04 18:12:05.410 ,0,0,,0,,0,,0,,0,,0,,0
1979-03-04 18:12:10.210 ,0,0,,0,20992.,4.8,6784.,4.8,,0,0.,4.8,4992.,4.8
1979-03-04 18:12:15.010 ,4,0,,0,18432.,4.8,5888.,4.8,,0,0.,4.8,4096.,4.8
1979-03-04 18:12:19.810 ,4,0,,0,17408.,4.8,5504.,4.8,,0,0.,4.8,3904.,4.8
1979-03-04 18:12:24.610 ,4,0,,0,14336.,4.8,4608.,4.8,,0,0.,4.8,4032.,4.8
1979-03-04 18:12:29.410 ,4,0,,0,0.,4.8,0.,4.8,,0,0.,4.8,4352.,4.8
1979-03-04 18:12:34.210 ,4,0,,0,0.,4.8,0.,4.8,,0,0.,4.8,5632.,4.8
1979-03-04 18:23:03.010 ,0,0,,0,1.,4.8,0.,4.8,,0,0.,4.8,4352.,4.8
1979-03-04 18:23:07.810 ,0,0,,0,1.,4.8,0.,4.8,,0,0.,4.8,4352.,4.8
1979-03-04 18:23:12.610 ,0,0,,0,3968.,4.8,1280.,4.8,,0,0.,4.8,4864.,4.8
1979-03-04 18:23:17.410 ,0,0,,0,23552.,4.8,7808.,4.8,,0,0.,4.8,5504.,4.8
1979-03-04 18:23:22.210 ,0,0,,0,23552.,4.8,7808.,4.8,,0,0.,4.8,5504.,4.8
1979-03-04 18:23:27.010 ,4,0,,0,20480.,4.8,6784.,4.8,,0,0.,4.8,4608.,4.8
1979-03-04 18:23:31.810 ,4,0,,0,19456.,4.8,6400.,4.8,,0,0.,4.8,4480.,4.8
1979-03-04 18:23:36.610 ,4,0,,0,16384.,4.8,5376.,4.8,,0,0.,4.8,4480.,4.8
1979-03-04 18:23:41.410 ,4,0,,0,1.,4.8,0.,4.8,,0,0.,4.8,4992.,4.8
1979-03-04 18:23:46.210 ,4,0,,0,0.,4.8,0.,4.8,,0,0.,4.8,6016.,4.8
1979-03-04 18:23:51.010 ,7,0,,0,0.,4.8,0.,4.8,,0,0.,4.8,7424.,4.8
1979-03-04 18:23:55.810 ,7,0,,0,0.,4.8,0.,4.8,,0,0.,4.8,8064.,4.8
1979-03-04 18:24:00.610 ,7,0,,0,0.,4.8,0.,4.8,,0,0.,4.8,5504.,4.8
1979-03-04 18:24:05.410 ,7,0,,0,10.,4.8,0.,4.8,,0,0.,4.8,0.,4.8
1979-03-04 18:24:10.210 ,7,0,,0,8.,4.8,0.,4.8,,0,0.,4.8,0.,4.8
1979-03-04 18:24:15.010 ,3,0,,0,27136.,4.8,8960.,4.8,,0,0.,4.8,6784.,4.8
1979-03-04 18:24:19.810 ,3,0,,0,32768.,4.8,11008.,4.8,,0,0.,4.8,7936.,4.8
1979-03-04 18:24:24.610 ,3,0,,0,25600.,4.8,8448.,4.8,,0,0.,4.8,7168.,4.8
1979-03-04 18:24:29.410 ,3,0,,0,0.,4.8,0.,4.8,,0,0.,4.8,6016.,4.8
1979-03-04 18:24:34.210 ,3,0,,0,1.,4.8,0.,4.8,,0,0.,4.8,4864.,4.8
1979-03-04 18:24:39.010 ,0,0,,0,1.,4.8,0.,4.8,,0,0.,4.8,4608.,4.8
1979-03-04 18:24:43.810 ,0,0,,0,1.,4.8,0.,4.8,,0,0.,4.8,4480.,4.8
1979-03-04 18:24:48.610 ,0,0,,0,4032.,4.8,1376.,4.8,,0,0.,4.8,4992.,4.8
1979-03-04 18:24:53.410 ,0,0,,0,24064.,4.8,7936.,4.8,,0,0.,4.8,5632.,4.8
1979-03-04 18:24:58.210 ,0,0,,0,23552.,4.8,7808.,4.8,,0,0.,4.8,5632.,4.8
1979-03-04 18:25:03.010 ,4,0,,0,20992.,4.8,6912.,4.8,,0,0.,4.8,4736.,4.8
1979-03-04 18:25:07.810 ,4,0,,0,19456.,4.8,6400.,4.8,,0,0.,4.8,4480.,4.8
1979-03-04 18:25:12.610 ,4,0,,0,16384.,4.8,5504.,4.8,,0,0.,4.8,4480.,4.8
1979-03-04 18:25:17.410 ,4,0,,0,0.,4.8,0.,4.8,,0,0.,4.8,4992.,4.8
1979-03-04 18:25:22.210 ,4,0,,0,0.,4.8,0.,4.8,,0,0.,4.8,6144.,4.8
1979-03-04 18:25:27.010 ,7,0,,0,1.,4.8,0.,4.8,,0,0.,4.8,7552.,4.8
1979-03-04 18:25:31.810 ,7,0,,0,1.,4.8,0.,4.8,,0,0.,4.8,7936.,4.8
1979-03-04 18:25:36.610 ,7,0,,0,4.,4.8,0.,4.8,,0,0.,4.8,5632.,4.8
1979-03-04 18:25:41.410 ,7,0,,0,10.,4.8,0.,4.8,,0,0.,4.8,0.,4.8
1979-03-04 18:25:46.210 ,7,0,,0,8.,4.8,0.,4.8,,0,0.,4.8,0.,4.8
1979-03-04 18:25:51.010 ,3,0,,0,27136.,4.8,9216.,4.8,,0,0.,4.8,6912.,4.8
1979-03-04 18:25:55.810 ,3,0,,0,32768.,4.8,11008.,4.8,,0,0.,4.8,7936.,4.8
1979-03-04 18:26:00.610 ,3,0,,0,26112.,4.8,8448.,4.8,,0,0.,4.8,7296.,4.8
1979-03-04 18:26:05.410 ,3,0,,0,0.,4.8,0.,4.8,,0,0.,4.8,6016.,4.8
1979-03-04 18:26:10.210 ,3,0,,0,0.,4.8,0.,4.8,,0,0.,4.8,4992.,4.8
1979-03-04 18:26:15.010 ,0,0,,0,0.,4.8,0.,4.8,,0,0.,4.8,4608.,4.8
1979-03-04 18:26:19.810 ,0,0,,0,1.,4.8,0.,4.8,,0,0.,4.8,4864.,4.8
1979-03-04 18:26:24.610 ,0,0,,0,3904.,4.8,1312.,4.8,,0,0.,4.8,4992.,4.8
1979-03-04 18:26:29.410 ,0,0,,0,24064.,4.8,8064.,4.8,,0,0.,4.8,5632.,4.8
1979-03-04 18:26:34.210 ,0,0,,0,23552.,4.8,7808.,4.8,,0,0.,4.8,5760.,4.8
1979-03-04 18:26:39.010 ,4,0,,0,20992.,4.8,7040.,4.8,,0,0.,4.8,4992.,4.8
1979-03-04 18:26:43.810 ,4,0,,0,19968.,4.8,6528.,4.8,,0,0.,4.8,4736.,4.8
1979-03-04 18:26:48.610 ,4,0,,0,16384.,4.8,5376.,4.8,,0,0.,4.8,4736.,4.8
1979-03-04 18:26:53.410 ,4,0,,0,1.,4.8,0.,4.8,,0,0.,4.8,5248.,4.8
1979-03-04 18:26:58.210 ,4,0,,0,1.,4.8,0.,4.8,,0,0.,4.8,6272.,4.8
1979-03-04 18:27:03.010 ,7,0,,0,0.,4.8,0.,4.8,,0,0.,4.8,7424.,4.8
1979-03-04 18:27:07.810 ,7,0,,0,2.,4.8,0.,4.8,,0,0.,4.8,8192.,4.8
1979-03-04 18:27:12.610 ,7,0,,0,6.,4.8,0.,4.8,,0,0.,4.8,5760.,4.8
1979-03-04 18:27:17.410 ,7,0,,0,9.,4.8,0.,4.8,,0,0.,4.8,0.,4.8
1979-03-04 18:27:22.210 ,7,0,,0,6.,4.8,0.,4.8,,0,0.,4.8,0.,4.8
1979-03-04 18:27:27.010 ,3,0,,0,27648.,4.8,9472.,4.8,,0,0.,4.8,7168.,4.8
1979-03-04 18:27:31.810 ,3,0,,0,32768.,4.8,11008.,4.8,,0,0.,4.8,8192.,4.8
1979-03-04 18:27:36.610 ,3,0,,0,25600.,4.8,8704.,4.8,,0,0.,4.8,7424.,4.8
1979-03-04 18:27:41.410 ,3,0,,0,0.,4.8,0.,4.8,,0,0.,4.8,6272.,4.8
1979-03-04 18:27:46.210 ,3,0,,0,2.,4.8,0.,4.8,,0,0.,4.8,5120.,4.8
1979-03-04 18:27:51.010 ,0,0,,0,0.,4.8,0.,4.8,,0,0.,4.8,4864.,4.8
1979-03-04 18:27:55.810 ,0,0,,0,2.,4.8,0.,4.8,,0,0.,4.8,4736.,4.8
1979-03-04 18:28:00.610 ,0,0,,0,3904.,4.8,1344.,4.8,,0,0.,4.8,5120.,4.8
1979-03-04 18:28:05.410 ,0,0,,0,24064.,4.8,8192.,4.8,,0,0.,4.8,5632.,4.8
1979-03-04 18:28:10.210 ,0,0,,0,24064.,4.8,8192.,4.8,,0,0.,4.8,5888.,4.8
1979-03-04 18:28:15.010 ,4,0,,0,20992.,4.8,7296.,4.8,,0,0.,4.8,5120.,4.8
1979-03-04 18:28:19.810 ,4,0,,0,19968.,4.8,6656.,4.8,,0,0.,4.8,4736.,4.8
1979-03-04 18:28:24.610 ,4,0,,0,16384.,4.8,5632.,4.8,,0,0.,4.8,4736.,4.8
1979-03-04 18:28:29.410 ,4,0,,0,0.,4.8,0.,4.8,,0,0.,4.8,5248.,4.8
1979-03-04 18:28:34.210 ,4,0,,0,0.,4.8,0.,4.8,,0,0.,4.8,6400.,4.8
1979-03-04 18:28:39.010 ,7,0,,0,0.,4.8,0.,4.8,,0,0.,4.8,7680.,4.8
1979-03-04 18:28:43.810 ,7,0,,0,0.,4.8,0.,4.8,,0,0.,4.8,8192.,4.8
1979-03-04 18:28:48.610 ,7,0,,0,1.,4.8,0.,4.8,,0,0.,4.8,5888.,4.8
1979-03-04 18:28:53.410 ,7,0,,0,10.,4.8,0.,4.8,,0,0.,4.8,0.,4.8
1979-03-04 18:28:58.210 ,7,0,,0,8.,4.8,0.,4.8,,0,0.,4.8,0.,4.8
1979-03-04 18:29:03.010 ,3,0,,0,28160.,4.8,9472.,4.8,,0,0.,4.8,7168.,4.8
1979-03-04 18:29:07.810 ,3,0,,0,32768.,4.8,11520.,4.8,,0,0.,4.8,8192.,4.8
1979-03-04 18:29:12.610 ,3,0,,0,26112.,4.8,8960.,4.8,,0,0.,4.8,7552.,4.8
1979-03-04 18:29:17.410 ,3,0,,0,0.,4.8,0.,4.8,,0,0.,4.8,6272.,4.8
1979-03-04 18:29:22.210 ,3,0,,0,0.,4.8,0.,4.8,,0,0.,4.8,5120.,4.8
1979-03-04 18:29:27.010 ,0,0,,0,0.,4.8,0.,4.8,,0,0.,4.8,4736.,4.8
1979-03-04 18:29:31.810 ,0,0,,0,1.,4.8,0.,4.8,,0,0.,4.8,4864.,4.8
1979-03-04 18:29:36.610 ,0,0,,0,4224.,4.8,1408.,4.8,,0,0.,4.8,5376.,4.8
1979-03-04 18:29:41.410 ,0,0,,0,24576.,4.8,8192.,4.8,,0,0.,4.8,5888.,4.8
1979-03-04 18:29:46.210 ,0,0,,0,24576.,4.8,8448.,4.8,,0,0.,4.8,6016.,4.8
1979-03-04 18:29:51.010 ,4,0,,0,20992.,4.8,7168.,4.8,,0,0.,4.8,5120.,4.8
1979-03-04 18:29:55.810 ,4,0,,0,19968.,4.8,6912.,4.8,,0,0.,4.8,4736.,4.8
1979-03-04 18:30:00.610 ,4,0,,0,16384.,4.8,5760.,4.8,,0,0.,4.8,4864.,4.8
1979-03-04 18:30:05.410 ,4,0,,0,0.,4.8,0.,4.8,,0,0.,4.8,5248.,4.8
1979-03-04 18:30:10.210 ,4,0,,0,1.,4.8,0.,4.8,,0,0.,4.8,6528.,4.8
1979-03-04 18:30:15.010 ,7,0,,0,1.,4.8,0.,4.8,,0,0.,4.8,7680.,4.8
1979-03-04 18:30:19.810 ,7,0,,0,0.,4.8,0.,4.8,,0,0.,4.8,8704.,4.8
1979-03-04 18:30:24.610 ,7,0,,0,3.,4.8,0.,4.8,,0,0.,4.8,6016.,4.8
1979-03-04 18:30:29.410 ,7,0,,0,13.,4.8,0.,4.8,,0,0.,4.8,0.,4.8
1979-03-04 18:30:34.210 ,7,0,,0,9.,4.8,0.,4.8,,0,0.,4.8,0.,4.8
1979-03-04 18:30:39.010 ,3,0,,0,28672.,4.8,9728.,4.8,,0,0.,4.8,7424.,4.8
1979-03-04 18:30:43.810 ,3,0,,0,33792.,4.8,11776.,4.8,,0,0.,4.8,8448.,4.8
1979-03-04 18:30:48.610 ,3,0,,0,26624.,4.8,8960.,4.8,,0,0.,4.8,7808.,4.8
1979-03-04 18:30:53.410 ,3,0,,0,0.,4.8,0.,4.8,,0,0.,4.8,6400.,4.8
1979-03-04 18:30:58.210 ,3,0,,0,1.,4.8,0.,4.8,,0,0.,4.8,5248.,4.8
1979-03-04 18:31:03.010 ,0,0,,0,0.,4.8,0.,4.8,,0,0.,4.8,4736.,4.8
1979-03-04 18:31:07.810 ,0,0,,0,1.,4.8,0.,4.8,,0,0.,4.8,4992.,4.8
1979-03-04 18:31:12.610 ,0,0,,0,4096.,4.8,1440.,4.8,,0,0.,4.8,5376.,4.8
1979-03-04 18:31:17.410 ,0,0,,0,25088.,4.8,8448.,4.8,,0,0.,4.8,6272.,4.8
1979-03-04 18:31:22.210 ,0,0,,0,25088.,4.8,8704.,4.8,,0,0.,4.8,6016.,4.8
1979-03-04 18:31:27.010 ,4,0,,0,22016.,4.8,7680.,4.8,,0,0.,4.8,5248.,4.8
1979-03-04 18:31:31.810 ,4,0,,0,20480.,4.8,7040.,4.8,,0,0.,4.8,4992.,4.8
1979-03-04 18:31:36.610 ,4,0,,0,16896.,4.8,5888.,4.8,,0,0.,4.8,4864.,4.8
1979-03-04 18:31:41.410 ,4,0,,0,0.,4.8,0.,4.8,,0,0.,4.8,5376.,4.8
1979-03-04 18:31:46.210 ,4,0,,0,0.,4.8,0.,4.8,,0,0.,4.8,6528.,4.8
1979-03-04 18:31:51.010 ,7,0,,0,0.,4.8,0.,4.8,,0,0.,4.8,7936.,4.8
1979-03-04 18:31:55.810 ,7,0,,0,0.,4.8,0.,4.8,,0,0.,4.8,8448.,4.8
1979-03-04 18:32:00.610 ,7,0,,0,4.,4.8,0.,4.8,,0,0.,4.8,6144.,4.8
1979-03-04 18:32:05.410 ,7,0,,0,14.,4.8,0.,4.8,,0,0.,4.8,0.,4.8
1979-03-04 18:32:10.210 ,7,0,,0,6.,4.8,0.,4.8,,0,0.,4.8,0.,4.8
1979-03-04 18:32:15.010 ,3,0,,0,28672.,4.8,9984.,4.8,,0,0.,4.8,7424.,4.8
1979-03-04 18:32:19.810 ,3,0,,0,33792.,4.8,11520.,4.8,,0,0.,4.8,8448.,4.8
1979-03-04 18:32:24.610 ,3,0,,0,27136.,4.8,9216.,4.8,,0,0.,4.8,7936.,4.8
1979-03-04 18:32:29.410 ,3,0,,0,1.,4.8,0.,4.8,,0,0.,4.8,6400.,4.8
1979-03-04 18:32:34.210 ,3,0,,0,1.,4.8,0.,4.8,,0,0.,4.8,5376.,4.8
1979-03-04 18:32:39.010 ,0,0,,0,0.,4.8,0.,4.8,,0,0.,4.8,4864.,4.8
1979-03-04 18:32:43.810 ,0,0,,0,1.,4.8,0.,4.8,,0,0.,4.8,5120.,4.8
1979-03-04 18:32:48.610 ,0,0,,0,4224.,4.8,1408.,4.8,,0,0.,4.8,5632.,4.8
1979-03-04 18:32:53.410 ,0,0,,0,25088.,4.8,8704.,4.8,,0,0.,4.8,6144.,4.8
1979-03-04 18:32:58.210 ,0,0,,0,25600.,4.8,8704.,4.8,,0,0.,4.8,6272.,4.8
1979-03-04 18:33:03.010 ,4,0,,0,22528.,4.8,7808.,4.8,,0,0.,4.8,5376.,4.8
1979-03-04 18:33:07.810 ,4,0,,0,20992.,4.8,7296.,4.8,,0,0.,4.8,5120.,4.8
1979-03-04 18:33:12.610 ,4,0,,0,17408.,4.8,5888.,4.8,,0,0.,4.8,5120.,4.8
1979-03-04 18:33:17.410 ,4,0,,0,2.,4.8,0.,4.8,,0,0.,4.8,5504.,4.8
1979-03-04 18:33:22.210 ,4,0,,0,0.,4.8,0.,4.8,,0,0.,4.8,6528.,4.8
1979-03-04 18:33:27.010 ,7,0,,0,1.,4.8,0.,4.8,,0,0.,4.8,8064.,4.8
1979-03-04 18:33:31.810 ,7,0,,0,2.,4.8,0.,4.8,,0,0.,4.8,8448.,4.8
1979-03-04 18:33:36.610 ,7,0,,0,2.,4.8,0.,4.8,,0,0.,4.8,6016.,4.8
1979-03-04 18:33:41.410 ,7,0,,0,9.,4.8,0.,4.8,,0,0.,4.8,0.,4.8
1979-03-04 18:33:46.210 ,7,0,,0,6.,4.8,0.,4.8,,0,0.,4.8,0.,4.8
1979-03-04 18:33:51.010 ,3,0,,0,28672.,4.8,9984.,4.8,,0,0.,4.8,7424.,4.8
1979-03-04 18:33:55.810 ,3,0,,0,33792.,4.8,11776.,4.8,,0,0.,4.8,8448.,4.8
1979-03-04 18:34:00.610 ,3,0,,0,27136.,4.8,9216.,4.8,,0,0.,4.8,7808.,4.8
1979-03-04 18:34:05.410 ,3,0,,0,0.,4.8,0.,4.8,,0,0.,4.8,6656.,4.8
1979-03-04 18:34:10.210 ,3,0,,0,1.,4.8,0.,4.8,,0,0.,4.8,5376.,4.8
1979-03-04 18:34:15.010 ,0,0,,0,1.,4.8,0.,4.8,,0,0.,4.8,4864.,4.8
1979-03-04 18:34:19.810 ,0,0,,0,1.,4.8,0.,4.8,,0,0.,4.8,5120.,4.8
1979-03-04 18:34:24.610 ,0,0,,0,4224.,4.8,1536.,4.8,,0,0.,4.8,5504.,4.8
1979-03-04 18:34:29.410 ,0,0,,0,25600.,4.8,8704.,4.8,,0,0.,4.8,6272.,4.8
1979-03-04 18:34:34.210 ,0,0,,0,25600.,4.8,8960.,4.8,,0,0.,4.8,6272.,4.8
1979-03-04 18:34:39.010 ,4,0,,0,22528.,4.8,7936.,4.8,,0,0.,4.8,5376.,4.8
1979-03-04 18:34:43.810 ,4,0,,0,21504.,4.8,7424.,4.8,,0,0.,4.8,4992.,4.8
1979-03-04 18:34:48.610 ,4,0,,0,17408.,4.8,6016.,4.8,,0,0.,4.8,5120.,4.8
1979-03-04 18:34:53.410 ,4,0,,0,2.,4.8,0.,4.8,,0,0.,4.8,5504.,4.8
1979-03-04 18:34:58.210 ,4,0,,0,1.,4.8,0.,4.8,,0,0.,4.8,6656.,4.8
1979-03-04 18:35:03.010 ,7,0,,0,1.,4.8,0.,4.8,,0,0.,4.8,8064.,4.8
1979-03-04 18:35:07.810 ,7,0,,0,1.,4.8,0.,4.8,,0,0.,4.8,8704.,4.8
1979-03-04 18:35:12.610 ,7,0,,0,1.,4.8,0.,4.8,,0,0.,4.8,6016.,4.8
1979-03-04 18:35:17.410 ,7,0,,0,13.,4.8,0.,4.8,,0,0.,4.8,0.,4.8
1979-03-04 18:35:22.210 ,7,0,,0,8.,4.8,0.,4.8,,0,0.,4.8,0.,4.8
1979-03-04 18:35:27.010 ,3,0,,0,29184.,4.8,9984.,4.8,,0,0.,4.8,7296.,4.8
1979-03-04 18:35:31.810 ,3,0,,0,34816.,4.8,12032.,4.8,,0,0.,4.8,8448.,4.8
1979-03-04 18:35:36.610 ,3,0,,0,27648.,4.8,9472.,4.8,,0,0.,4.8,7808.,4.8
1979-03-04 18:35:41.410 ,3,0,,0,0.,4.8,0.,4.8,,0,0.,4.8,6528.,4.8
1979-03-04 18:35:46.210 ,3,0,,0,1.,4.8,0.,4.8,,0,0.,4.8,5632.,4.8
1979-03-04 18:35:51.010 ,0,0,,0,2.,4.8,0.,4.8,,0,0.,4.8,5120.,4.8
1979-03-04 18:35:55.810 ,0,0,,0,1.,4.8,0.,4.8,,0,0.,4.8,5120.,4.8
1979-03-04 18:36:00.610 ,0,0,,0,4352.,4.8,1504.,4.8,,0,0.,4.8,5632.,4.8
1979-03-04 18:36:05.410 ,0,0,,0,26112.,4.8,9216.,4.8,,0,0.,4.8,6272.,4.8
1979-03-04 18:36:10.210 ,0,0,,0,26112.,4.8,8960.,4.8,,0,0.,4.8,6144.,4.8
1979-03-04 18:36:15.010 ,4,0,,0,23040.,4.8,8064.,4.8,,0,0.,4.8,5504.,4.8
1979-03-04 18:36:19.810 ,4,0,,0,21504.,4.8,7680.,4.8,,0,0.,4.8,4992.,4.8
1979-03-04 18:36:24.610 ,4,0,,0,17408.,4.8,6144.,4.8,,0,0.,4.8,5120.,4.8
1979-03-04 18:36:29.410 ,4,0,,0,1.,4.8,0.,4.8,,0,0.,4.8,5632.,4.8
1979-03-04 18:36:34.210 ,4,0,,0,2.,4.8,0.,4.8,,0,0.,4.8,6656.,4.8
1979-03-04 18:36:39.010 ,7,0,,0,2.,4.8,0.,4.8,,0,0.,4.8,8192.,4.8
1979-03-04 18:36:43.810 ,7,0,,0,3.,4.8,0.,4.8,,0,0.,4.8,8704.,4.8
1979-03-04 18:36:48.610 ,7,0,,0,3.,4.8,0.,4.8,,0,0.,4.8,6272.,4.8
1979-03-04 18:36:53.410 ,7,0,,0,6.,4.8,0.,4.8,,0,0.,4.8,0.,4.8
1979-03-04 18:36:58.210 ,7,0,,0,6.,4.8,0.,4.8,,0,0.,4.8,0.,4.8
1979-03-04 18:37:03.010 ,3,0,,0,29696.,4.8,10496.,4.8,,0,0.,4.8,7808.,4.8
1979-03-04 18:37:07.810 ,3,0,,0,34816.,4.8,12544.,4.8,,0,0.,4.8,8704.,4.8
1979-03-04 18:37:12.610 ,3,0,,0,28160.,4.8,9728.,4.8,,0,0.,4.8,7552.,4.8
1979-03-04 18:37:17.410 ,3,0,,0,0.,4.8,0.,4.8,,0,0.,4.8,6528.,4.8
1979-03-04 18:37:22.210 ,3,0,,0,0.,4.8,0.,4.8,,0,0.,4.8,5504.,4.8
1979-03-04 18:37:27.010 ,0,0,,0,2.,4.8,0.,4.8,,0,0.,4.8,5120.,4.8
1979-03-04 18:37:31.810 ,0,0,,0,0.,4.8,0.,4.8,,0,0.,4.8,5248.,4.8
1979-03-04 18:37:36.610 ,0,0,,0,4224.,4.8,1504.,4.8,,0,0.,4.8,5632.,4.8
1979-03-04 18:37:41.410 ,0,0,,0,26624.,4.8,9216.,4.8,,0,0.,4.8,6272.,4.8
1979-03-04 18:37:46.210 ,0,0,,0,26112.,4.8,9216.,4.8,,0,0.,4.8,6272.,4.8
1979-03-04 18:37:51.010 ,4,0,,0,23040.,4.8,8192.,4.8,,0,0.,4.8,5376.,4.8
1979-03-04 18:37:55.810 ,4,0,,0,22016.,4.8,7680.,4.8,,0,0.,4.8,5120.,4.8
1979-03-04 18:38:00.610 ,4,0,,0,18432.,4.8,6272.,4.8,,0,0.,4.8,5248.,4.8
1979-03-04 18:38:05.410 ,4,0,,0,0.,4.8,0.,4.8,,0,0.,4.8,5632.,4.8
1979-03-04 18:38:10.210 ,4,0,,0,0.,4.8,0.,4.8,,0,0.,4.8,6912.,4.8
1979-03-04 18:38:15.010 ,7,0,,0,0.,4.8,0.,4.8,,0,0.,4.8,8064.,4.8
1979-03-04 18:38:19.810 ,7,0,,0,0.,4.8,0.,4.8,,0,0.,4.8,8960.,4.8
1979-03-04 18:38:24.610 ,7,0,,0,5.,4.8,0.,4.8,,0,0.,4.8,6272.,4.8
1979-03-04 18:38:29.410 ,7,0,,0,6.,4.8,0.,4.8,,0,0.,4.8,0.,4.8
1979-03-04 18:38:34.210 ,7,0,,0,15.,4.8,0.,4.8,,0,0.,4.8,0.,4.8
1979-03-04 18:38:39.010 ,3,0,,0,30208.,4.8,10496.,4.8,,0,0.,4.8,7680.,4.8
1979-03-04 18:38:43.810 ,3,0,,0,36864.,4.8,12800.,4.8,,0,0.,4.8,8960.,4.8